Lumberton, NC

9:54 PM EDT on April 23, 2018 (GMT -0400)
Lumberton Municipal

Weather History for KLBT - June, 2012

Change the Weather History Date:

Friday, June 1, 2012

  Actual Average Record
Temperature  
Mean Temperature 79 °F 74 °F  
Max Temperature 90 °F 86 °F 96 °F (2011)
Min Temperature 67 °F 63 °F 55 °F (1999)
Degree Days  
Heating Degree Days 0 0  
Month to date heating degree days 0 0  
Since 1 June heating degree days 0 0  
Since 1 July heating degree days 2138 2761  
Cooling Degree Days 14 10  
Month to date cooling degree days 14 10  
Year to date cooling degree days 420 260  
Since 1 June cooling degree days 14 10  
Growing Degree Days 29 (Base 50)    
Moisture  
Dew Point 70 °F    
Average Humidity 75    
Maximum Humidity 100    
Minimum Humidity 50    
Precipitation  
Precipitation 0.17 in 0.16 in 1.21 in (2001)
Month to date precipitation 0.17 0.16  
Year to date precipitation 17.20 15.23  
Sea Level Pressure  
Sea Level Pressure 29.82 in    
Wind  
Wind Speed 6 mph (SSW)    
Max Wind Speed 16 mph    
Max Gust Speed 23 mph    
Visibility 6 miles    
Events Fog , Rain , Thunderstorm    
T = Trace of Precipitation, MM = Missing Value Source: NWS Daily Summary

Daily Weather History Graph

Daily Weather History Graph

Search for Another Location

Airport or City:

Astronomy

Jun. 01, 2012 Rise Set
Actual Time 6:04 AM EDT 8:24 PM EDT
Civil Twilight 5:35 AM EDT 8:53 PM EDT
Nautical Twilight 4:59 AM EDT 9:29 PM EDT
Astronomical Twilight 4:20 AM EDT 10:07 PM EDT
Moon 5:29 PM EDT (6/1) 3:32 AM EDT (6/1)
Length of Visible Light 15h 17m
Length of Day
14h 19m
Waxing Gibbous, 89% of the Moon is Illuminated
Jun 1
Waxing Gibbous
Jun 4
Full
Jun 11
Last Quarter
Jun 19
New
Jun 26
First Quarter

Hourly Weather History & Observations

Time (EDT) Temp. Heat Index Dew Point Humidity Pressure Visibility Wind Dir Wind Speed Gust Speed Precip Events Conditions
12:54 AM 69.1 °F - 66.0 °F 90% 29.89 in 10.0 mi SSE 3.5 mph - N/A   Clear
1:54 AM 69.1 °F - 66.9 °F 93% 29.88 in 10.0 mi Calm Calm - N/A   Clear
2:54 AM 68.0 °F - 66.9 °F 96% 29.86 in 7.0 mi Calm Calm - N/A   Clear
3:54 AM 68.0 °F - 66.9 °F 96% 29.86 in 5.0 mi Calm Calm - N/A   Clear
4:54 AM 68.0 °F - 66.9 °F 96% 29.85 in 5.0 mi Calm Calm - N/A   Scattered Clouds
5:02 AM 68.0 °F - 68.0 °F 100% 29.85 in 5.0 mi Calm Calm - N/A   Mostly Cloudy
5:12 AM 68.0 °F - 68.0 °F 100% 29.85 in 4.0 mi Calm Calm - N/A   Overcast
5:48 AM 69.8 °F - 69.8 °F 100% 29.85 in 1.8 mi Calm Calm - N/A   Overcast
5:50 AM 69.8 °F - 69.8 °F 100% 29.85 in 1.0 mi Calm Calm - N/A   Mist
5:54 AM 69.1 °F - 69.1 °F 100% 29.85 in 0.5 mi Calm Calm - N/A Fog Fog
6:27 AM 69.8 °F - 69.8 °F 100% 29.85 in 0.2 mi Calm Calm - N/A Fog , Thunderstorm Fog
6:52 AM 71.6 °F - 71.6 °F 100% 29.86 in 0.5 mi Calm Calm - N/A Fog Fog
6:54 AM 71.1 °F - 71.1 °F 100% 29.86 in 0.5 mi Calm Calm - N/A Fog Fog
7:00 AM 71.6 °F - 71.6 °F 100% 29.86 in 1.2 mi SE 3.5 mph - N/A   Overcast
7:12 AM 71.6 °F - 71.6 °F 100% 29.86 in 2.0 mi Calm Calm - N/A   Overcast
7:39 AM 73.4 °F - 73.4 °F 100% 29.86 in 4.0 mi SE 4.6 mph - N/A   Overcast
8:20 AM 75.2 °F - 73.4 °F 94% 29.86 in 6.0 mi SSE 5.8 mph - N/A   Overcast
8:52 AM 77.0 °F - 73.4 °F 89% 29.86 in 8.0 mi South 5.8 mph - N/A   Overcast
9:13 AM 78.8 °F - 73.4 °F 83% 29.86 in 9.0 mi Variable 4.6 mph - N/A   Overcast
9:23 AM 78.8 °F - 73.4 °F 83% 29.86 in 10.0 mi SSW 8.1 mph - N/A   Mostly Cloudy
9:47 AM 80.6 °F 84.6 °F 71.6 °F 74% 29.86 in 10.0 mi South 6.9 mph - N/A   Scattered Clouds
9:54 AM 82.0 °F 86.7 °F 72.0 °F 71% 29.85 in 10.0 mi South 5.8 mph - N/A   Partly Cloudy
10:54 AM 82.9 °F 87.0 °F 70.0 °F 65% 29.85 in 10.0 mi SSW 9.2 mph - N/A   Partly Cloudy
12:54 PM 88.0 °F 92.1 °F 69.1 °F 53% 29.81 in 10.0 mi South 9.2 mph - N/A   Partly Cloudy
1:54 PM 89.1 °F 92.9 °F 68.0 °F 50% 29.79 in 10.0 mi SSW 8.1 mph 23.0 mph N/A   Partly Cloudy
2:54 PM 90.0 °F 93.6 °F 68.0 °F 48% 29.75 in 10.0 mi South 12.7 mph 19.6 mph N/A   Partly Cloudy
4:54 PM 82.9 °F 89.4 °F 73.9 °F 74% 29.74 in 10.0 mi South 9.2 mph - 0.01 in   Scattered Clouds
5:54 PM 82.9 °F 88.8 °F 73.0 °F 72% 29.73 in 10.0 mi South 11.5 mph 17.3 mph N/A   Clear
6:42 PM 80.6 °F 83.9 °F 69.8 °F 70% 29.73 in 10.0 mi SSW 5.8 mph - N/A Thunderstorm Thunderstorm
6:50 PM 78.8 °F - 69.8 °F 74% 29.73 in 1.8 mi NNW 4.6 mph - 0.08 in Rain , Thunderstorm Light Thunderstorms and Rain
7:03 PM 75.2 °F - 73.4 °F 94% 29.74 in 1.8 mi SW 8.1 mph - 0.02 in Rain , Thunderstorm Thunderstorms and Rain
7:05 PM 75.2 °F - 73.4 °F 94% 29.74 in 3.0 mi SSW 8.1 mph - 0.02 in Rain , Thunderstorm Light Thunderstorms and Rain
7:49 PM 75.2 °F - 71.6 °F 89% 29.75 in 8.0 mi Calm Calm - 0.02 in   Clear
7:54 PM 75.0 °F - 72.0 °F 90% 29.75 in 8.0 mi South 4.6 mph - 0.02 in   Clear
8:54 PM 73.0 °F - 70.0 °F 90% 29.75 in 10.0 mi SSW 4.6 mph - N/A   Clear
9:54 PM 72.0 °F - 66.9 °F 84% 29.78 in 10.0 mi WSW 10.4 mph - N/A   Clear
10:54 PM 72.0 °F - 66.0 °F 81% 29.80 in 10.0 mi WSW 9.2 mph - N/A   Clear
11:54 PM 71.1 °F - 66.0 °F 84% 29.78 in 10.0 mi SW 9.2 mph - N/A   Partly Cloudy